Time,TemperatureF,DewpointF,PressureIn,WindDirection,WindDirectionDegrees,WindSpeedMPH,WindSpeedGustMPH,Humidity,HourlyPrecipIn,Conditions,Clouds,dailyrainin,SoftwareType,DateUTC
2013-01-18 00:00:00,18.2,16.0,29.23,NW,315,4.0,9.0,93,0.00,,,0.00,Rainwise IP-100,2013-01-18 05:00:00,
2013-01-18 00:03:00,18.2,16.0,29.24,NNW,337,7.0,9.0,93,0.00,,,0.00,Rainwise IP-100,2013-01-18 05:03:00,
2013-01-18 00:08:00,18.1,16.0,29.23,NW,315,6.0,12.0,93,0.00,,,0.00,Rainwise IP-100,2013-01-18 05:08:00,
2013-01-18 00:13:00,17.9,16.0,29.23,NNW,337,4.0,11.0,93,0.00,,,0.00,Rainwise IP-100,2013-01-18 05:13:00,
2013-01-18 00:18:00,17.9,16.0,29.23,NW,315,7.0,12.0,93,0.00,,,0.00,Rainwise IP-100,2013-01-18 05:18:00,
2013-01-18 00:23:00,17.9,16.0,29.23,NW,315,8.0,12.0,92,0.00,,,0.00,Rainwise IP-100,2013-01-18 05:23:00,
2013-01-18 00:28:00,17.9,16.0,29.24,NNW,337,7.0,12.0,93,0.00,,,0.00,Rainwise IP-100,2013-01-18 05:28:00,
2013-01-18 00:30:00,17.8,16.0,29.24,NNW,337,6.0,9.0,92,0.00,,,0.00,Rainwise IP-100,2013-01-18 05:30:00,
2013-01-18 00:35:00,17.8,16.0,29.25,NNW,337,6.0,11.0,92,0.00,,,0.00,Rainwise IP-100,2013-01-18 05:35:00,
2013-01-18 00:40:00,17.7,16.0,29.25,NNW,337,7.0,12.0,92,0.00,,,0.00,Rainwise IP-100,2013-01-18 05:40:00,
2013-01-18 00:45:00,17.7,16.0,29.25,NNW,337,6.0,12.0,92,0.00,,,0.00,Rainwise IP-100,2013-01-18 05:45:00,
2013-01-18 00:50:00,17.5,16.0,29.25,WNW,292,9.0,11.0,92,0.00,,,0.00,Rainwise IP-100,2013-01-18 05:50:00,
2013-01-18 00:55:00,17.4,16.0,29.25,NW,315,8.0,11.0,93,0.00,,,0.00,Rainwise IP-100,2013-01-18 05:55:00,
2013-01-18 01:00:00,17.3,16.0,29.25,NNW,337,6.0,12.0,93,0.00,,,0.00,Rainwise IP-100,2013-01-18 06:00:00,
2013-01-18 01:05:00,17.2,16.0,29.25,NNW,337,3.0,10.0,93,0.00,,,0.00,Rainwise IP-100,2013-01-18 06:05:00,
2013-01-18 01:10:00,16.9,16.0,29.25,NNW,337,9.0,9.0,93,0.00,,,0.00,Rainwise IP-100,2013-01-18 06:10:00,
2013-01-18 01:15:00,16.8,16.0,29.25,NW,315,6.0,12.0,92,0.00,,,0.00,Rainwise IP-100,2013-01-18 06:15:00,
2013-01-18 01:20:00,16.7,16.0,29.25,WNW,292,4.0,10.0,91,0.00,,,0.00,Rainwise IP-100,2013-01-18 06:20:00,
2013-01-18 01:25:00,16.4,14.0,29.26,NW,315,6.0,7.0,92,0.00,,,0.00,Rainwise IP-100,2013-01-18 06:25:00,
2013-01-18 01:30:00,16.5,16.0,29.27,NW,315,6.0,11.0,91,0.00,,,0.00,Rainwise IP-100,2013-01-18 06:30:00,
2013-01-18 01:35:00,16.5,16.0,29.27,NW,315,4.0,12.0,92,0.00,,,0.00,Rainwise IP-100,2013-01-18 06:35:00,
2013-01-18 01:40:00,16.5,16.0,29.27,NW,315,7.0,9.0,92,0.00,,,0.00,Rainwise IP-100,2013-01-18 06:40:00,
2013-01-18 01:45:00,16.4,14.0,29.27,NW,315,7.0,8.0,93,0.00,,,0.00,Rainwise IP-100,2013-01-18 06:45:00,
2013-01-18 01:50:00,16.4,14.0,29.27,NW,315,6.0,8.0,93,0.00,,,0.00,Rainwise IP-100,2013-01-18 06:50:00,
2013-01-18 01:55:00,16.4,14.0,29.27,NW,315,5.0,9.0,93,0.00,,,0.00,Rainwise IP-100,2013-01-18 06:55:00,
2013-01-18 02:00:00,16.4,14.0,29.27,WNW,292,5.0,10.0,92,0.00,,,0.00,Rainwise IP-100,2013-01-18 07:00:00,
2013-01-18 02:05:00,16.4,14.0,29.28,NW,315,4.0,11.0,91,0.00,,,0.00,Rainwise IP-100,2013-01-18 07:05:00,
2013-01-18 02:10:00,16.4,14.0,29.28,NW,315,5.0,10.0,89,0.00,,,0.00,Rainwise IP-100,2013-01-18 07:10:00,
2013-01-18 02:15:00,16.3,14.0,29.28,NW,315,9.0,12.0,88,0.00,,,0.00,Rainwise IP-100,2013-01-18 07:15:00,
2013-01-18 02:20:00,16.3,14.0,29.30,NW,315,6.0,11.0,87,0.00,,,0.00,Rainwise IP-100,2013-01-18 07:20:00,
2013-01-18 02:25:00,16.4,14.0,29.30,NW,315,4.0,9.0,88,0.00,,,0.00,Rainwise IP-100,2013-01-18 07:25:00,
2013-01-18 02:30:00,16.3,14.0,29.30,NW,315,4.0,9.0,88,0.00,,,0.00,Rainwise IP-100,2013-01-18 07:30:00,
2013-01-18 02:35:00,16.3,14.0,29.31,WNW,292,6.0,8.0,88,0.00,,,0.00,Rainwise IP-100,2013-01-18 07:35:00,
2013-01-18 02:40:00,16.4,14.0,29.32,West,270,7.0,8.0,89,0.00,,,0.00,Rainwise IP-100,2013-01-18 07:40:00,
2013-01-18 02:45:00,16.4,14.0,29.31,WNW,292,4.0,7.0,89,0.00,,,0.00,Rainwise IP-100,2013-01-18 07:45:00,
2013-01-18 02:50:00,16.4,14.0,29.31,NW,315,4.0,9.0,89,0.00,,,0.00,Rainwise IP-100,2013-01-18 07:50:00,
2013-01-18 02:55:00,16.3,14.0,29.32,WNW,292,4.0,7.0,89,0.00,,,0.00,Rainwise IP-100,2013-01-18 07:55:00,
2013-01-18 03:00:00,16.3,14.0,29.33,WNW,292,7.0,10.0,89,0.00,,,0.00,Rainwise IP-100,2013-01-18 08:00:00,
2013-01-18 03:05:00,16.3,14.0,29.33,WNW,292,5.0,10.0,90,0.00,,,0.00,Rainwise IP-100,2013-01-18 08:05:00,
2013-01-18 03:10:00,16.3,14.0,29.33,West,270,3.0,10.0,90,0.00,,,0.00,Rainwise IP-100,2013-01-18 08:10:00,
2013-01-18 03:15:00,16.2,14.0,29.33,West,270,7.0,8.0,91,0.00,,,0.00,Rainwise IP-100,2013-01-18 08:15:00,
2013-01-18 03:20:00,16.2,14.0,29.34,WNW,292,5.0,9.0,91,0.00,,,0.00,Rainwise IP-100,2013-01-18 08:20:00,
2013-01-18 03:25:00,16.2,14.0,29.34,West,270,4.0,9.0,92,0.00,,,0.00,Rainwise IP-100,2013-01-18 08:25:00,
2013-01-18 03:30:00,16.2,14.0,29.34,WNW,292,6.0,10.0,92,0.00,,,0.00,Rainwise IP-100,2013-01-18 08:30:00,
2013-01-18 03:35:00,16.2,14.0,29.34,West,270,4.0,10.0,92,0.00,,,0.00,Rainwise IP-100,2013-01-18 08:35:00,
2013-01-18 03:40:00,16.2,14.0,29.34,WNW,292,6.0,10.0,93,0.00,,,0.00,Rainwise IP-100,2013-01-18 08:40:00,
2013-01-18 03:45:00,16.1,14.0,29.34,WNW,292,6.0,10.0,92,0.00,,,0.00,Rainwise IP-100,2013-01-18 08:45:00,
2013-01-18 03:50:00,16.1,14.0,29.34,NW,315,4.0,8.0,92,0.00,,,0.00,Rainwise IP-100,2013-01-18 08:50:00,
2013-01-18 03:55:00,15.9,14.0,29.34,WNW,292,4.0,8.0,93,0.00,,,0.00,Rainwise IP-100,2013-01-18 08:55:00,
2013-01-18 04:00:00,15.8,14.0,29.34,WNW,292,6.0,11.0,93,0.00,,,0.00,Rainwise IP-100,2013-01-18 09:00:00,
2013-01-18 04:01:00,15.8,14.0,29.34,WNW,292,7.0,11.0,93,0.00,,,0.00,Rainwise IP-100,2013-01-18 09:01:00,
2013-01-18 04:07:00,15.6,14.0,29.34,West,270,4.0,9.0,93,0.00,,,0.00,Rainwise IP-100,2013-01-18 09:07:00,
2013-01-18 04:12:00,15.4,14.0,29.35,WNW,292,4.0,8.0,92,0.00,,,0.00,Rainwise IP-100,2013-01-18 09:12:00,
2013-01-18 04:17:00,15.1,14.0,29.35,WNW,292,3.0,9.0,92,0.00,,,0.00,Rainwise IP-100,2013-01-18 09:17:00,
2013-01-18 04:22:00,14.9,14.0,29.35,WNW,292,4.0,7.0,92,0.00,,,0.00,Rainwise IP-100,2013-01-18 09:22:00,
2013-01-18 04:27:00,14.8,14.0,29.35,West,270,4.0,9.0,92,0.00,,,0.00,Rainwise IP-100,2013-01-18 09:27:00,
2013-01-18 04:32:00,14.5,14.0,29.35,WNW,292,2.0,6.0,92,0.00,,,0.00,Rainwise IP-100,2013-01-18 09:32:00,
2013-01-18 04:37:00,14.2,11.0,29.35,WNW,292,4.0,6.0,93,0.00,,,0.00,Rainwise IP-100,2013-01-18 09:37:00,
2013-01-18 04:42:00,14.1,11.0,29.35,WNW,292,4.0,7.0,93,0.00,,,0.00,Rainwise IP-100,2013-01-18 09:42:00,
2013-01-18 04:47:00,14.2,11.0,29.36,West,270,2.0,9.0,92,0.00,,,0.00,Rainwise IP-100,2013-01-18 09:47:00,
2013-01-18 04:52:00,13.9,11.0,29.36,West,270,3.0,7.0,92,0.00,,,0.00,Rainwise IP-100,2013-01-18 09:52:00,
2013-01-18 04:57:00,13.5,11.0,29.36,West,270,4.0,6.0,92,0.00,,,0.00,Rainwise IP-100,2013-01-18 09:57:00,
2013-01-18 05:02:00,13.2,11.0,29.36,WNW,292,2.0,6.0,93,0.00,,,0.00,Rainwise IP-100,2013-01-18 10:02:00,
2013-01-18 05:07:00,13.1,11.0,29.36,West,270,4.0,6.0,93,0.00,,,0.00,Rainwise IP-100,2013-01-18 10:07:00,
2013-01-18 05:12:00,12.8,11.0,29.36,WNW,292,3.0,6.0,93,0.00,,,0.00,Rainwise IP-100,2013-01-18 10:12:00,
2013-01-18 05:17:00,12.7,11.0,29.37,WNW,292,5.0,6.0,93,0.00,,,0.00,Rainwise IP-100,2013-01-18 10:17:00,
2013-01-18 05:22:00,12.8,11.0,29.38,WNW,292,4.0,7.0,93,0.00,,,0.00,Rainwise IP-100,2013-01-18 10:22:00,
2013-01-18 05:27:00,12.8,11.0,29.38,WNW,292,3.0,7.0,93,0.00,,,0.00,Rainwise IP-100,2013-01-18 10:27:00,
2013-01-18 05:32:00,12.9,11.0,29.38,WNW,292,2.0,4.0,93,0.00,,,0.00,Rainwise IP-100,2013-01-18 10:32:00,
2013-01-18 05:37:00,12.9,11.0,29.38,WNW,292,2.0,4.0,93,0.00,,,0.00,Rainwise IP-100,2013-01-18 10:37:00,
2013-01-18 05:42:00,13.1,11.0,29.38,West,270,2.0,3.0,93,0.00,,,0.00,Rainwise IP-100,2013-01-18 10:42:00,
2013-01-18 05:47:00,13.2,11.0,29.38,West,270,2.0,3.0,93,0.00,,,0.00,Rainwise IP-100,2013-01-18 10:47:00,
2013-01-18 05:52:00,13.5,11.0,29.39,West,270,4.0,5.0,93,0.00,,,0.00,Rainwise IP-100,2013-01-18 10:52:00,
2013-01-18 05:57:00,13.7,11.0,29.40,West,270,4.0,5.0,93,0.00,,,0.00,Rainwise IP-100,2013-01-18 10:57:00,
2013-01-18 06:02:00,13.9,11.0,29.40,WNW,292,4.0,7.0,93,0.00,,,0.00,Rainwise IP-100,2013-01-18 11:02:00,
2013-01-18 06:07:00,14.1,11.0,29.40,WNW,292,3.0,6.0,93,0.00,,,0.00,Rainwise IP-100,2013-01-18 11:07:00,
2013-01-18 06:12:00,13.9,11.0,29.40,West,270,2.0,5.0,93,0.00,,,0.00,Rainwise IP-100,2013-01-18 11:12:00,
2013-01-18 06:17:00,13.9,11.0,29.41,WNW,292,3.0,5.0,93,0.00,,,0.00,Rainwise IP-100,2013-01-18 11:17:00,
2013-01-18 06:22:00,13.7,11.0,29.41,WNW,292,2.0,4.0,93,0.00,,,0.00,Rainwise IP-100,2013-01-18 11:22:00,
2013-01-18 06:27:00,13.3,11.0,29.41,WNW,292,2.0,2.0,92,0.00,,,0.00,Rainwise IP-100,2013-01-18 11:27:00,
2013-01-18 06:32:00,12.6,11.0,29.41,West,270,2.0,4.0,93,0.00,,,0.00,Rainwise IP-100,2013-01-18 11:32:00,
2013-01-18 06:37:00,11.9,11.0,29.42,WSW,247,2.0,4.0,93,0.00,,,0.00,Rainwise IP-100,2013-01-18 11:37:00,
2013-01-18 06:42:00,11.7,11.0,29.42,WSW,247,2.0,4.0,93,0.00,,,0.00,Rainwise IP-100,2013-01-18 11:42:00,
2013-01-18 06:47:00,11.5,11.0,29.42,WSW,247,2.0,3.0,93,0.00,,,0.00,Rainwise IP-100,2013-01-18 11:47:00,
2013-01-18 06:52:00,11.2,11.0,29.42,WSW,247,3.0,4.0,93,0.00,,,0.00,Rainwise IP-100,2013-01-18 11:52:00,
2013-01-18 06:57:00,10.9,8.0,29.42,WSW,247,2.0,4.0,92,0.00,,,0.00,Rainwise IP-100,2013-01-18 11:57:00,
2013-01-18 07:02:00,10.7,8.0,29.42,WSW,247,2.0,4.0,92,0.00,,,0.00,Rainwise IP-100,2013-01-18 12:02:00,
2013-01-18 07:07:00,11.1,11.0,29.43,WSW,247,1.0,3.0,93,0.00,,,0.00,Rainwise IP-100,2013-01-18 12:07:00,
2013-01-18 07:12:00,11.3,11.0,29.43,WSW,247,2.0,2.0,93,0.00,,,0.00,Rainwise IP-100,2013-01-18 12:12:00,
2013-01-18 07:17:00,11.1,11.0,29.43,WSW,247,2.0,3.0,93,0.00,,,0.00,Rainwise IP-100,2013-01-18 12:17:00,
2013-01-18 07:22:00,10.9,8.0,29.43,SW,225,2.0,3.0,92,0.00,,,0.00,Rainwise IP-100,2013-01-18 12:22:00,
2013-01-18 07:27:00,11.3,11.0,29.43,SW,225,1.0,3.0,93,0.00,,,0.00,Rainwise IP-100,2013-01-18 12:27:00,
2013-01-18 07:32:00,11.8,11.0,29.43,SW,225,1.0,2.0,93,0.00,,,0.00,Rainwise IP-100,2013-01-18 12:32:00,
2013-01-18 07:37:00,11.9,11.0,29.44,SW,225,1.0,2.0,93,0.00,,,0.00,Rainwise IP-100,2013-01-18 12:37:00,
2013-01-18 07:42:00,12.2,11.0,29.43,SSW,202,2.0,2.0,93,0.00,,,0.00,Rainwise IP-100,2013-01-18 12:42:00,
2013-01-18 07:47:00,11.9,11.0,29.43,South,180,2.0,3.0,93,0.00,,,0.00,Rainwise IP-100,2013-01-18 12:47:00,
2013-01-18 07:52:00,11.8,11.0,29.44,SSW,202,2.0,3.0,93,0.00,,,0.00,Rainwise IP-100,2013-01-18 12:52:00,
2013-01-18 07:57:00,12.4,11.0,29.44,SSW,202,2.0,3.0,93,0.00,,,0.00,Rainwise IP-100,2013-01-18 12:57:00,
2013-01-18 08:02:00,12.1,11.0,29.44,SW,225,2.0,3.0,93,0.00,,,0.00,Rainwise IP-100,2013-01-18 13:02:00,
2013-01-18 08:07:00,12.3,11.0,29.45,SSW,202,2.0,3.0,93,0.00,,,0.00,Rainwise IP-100,2013-01-18 13:07:00,
2013-01-18 08:12:00,12.5,11.0,29.45,SSW,202,1.0,4.0,93,0.00,,,0.00,Rainwise IP-100,2013-01-18 13:12:00,
2013-01-18 08:17:00,12.6,11.0,29.45,SW,225,1.0,3.0,93,0.00,,,0.00,Rainwise IP-100,2013-01-18 13:17:00,
2013-01-18 08:22:00,12.9,11.0,29.46,SW,225,2.0,2.0,93,0.00,,,0.00,Rainwise IP-100,2013-01-18 13:22:00,
2013-01-18 08:27:00,13.2,11.0,29.46,SW,225,1.0,2.0,93,0.00,,,0.00,Rainwise IP-100,2013-01-18 13:27:00,
2013-01-18 08:32:00,13.6,11.0,29.46,SSW,202,2.0,3.0,92,0.00,,,0.00,Rainwise IP-100,2013-01-18 13:32:00,
2013-01-18 08:37:00,13.9,11.0,29.46,South,180,2.0,4.0,91,0.00,,,0.00,Rainwise IP-100,2013-01-18 13:37:00,
2013-01-18 08:42:00,14.5,14.0,29.46,SSW,202,4.0,6.0,89,0.00,,,0.00,Rainwise IP-100,2013-01-18 13:42:00,
2013-01-18 08:47:00,14.7,14.0,29.46,SSW,202,4.0,6.0,87,0.00,,,0.00,Rainwise IP-100,2013-01-18 13:47:00,
2013-01-18 08:52:00,15.3,14.0,29.47,SSW,202,4.0,6.0,85,0.00,,,0.00,Rainwise IP-100,2013-01-18 13:52:00,
2013-01-18 08:57:00,15.6,11.0,29.47,SSW,202,1.0,9.0,83,0.00,,,0.00,Rainwise IP-100,2013-01-18 13:57:00,
2013-01-18 09:02:00,16.1,11.0,29.48,SW,225,4.0,8.0,82,0.00,,,0.00,Rainwise IP-100,2013-01-18 14:02:00,
2013-01-18 09:07:00,16.6,14.0,29.48,SSW,202,2.0,11.0,82,0.00,,,0.00,Rainwise IP-100,2013-01-18 14:07:00,
2013-01-18 09:13:00,16.9,14.0,29.47,SW,225,3.0,10.0,81,0.00,,,0.00,Rainwise IP-100,2013-01-18 14:13:00,
2013-01-18 09:18:00,17.0,14.0,29.48,SW,225,4.0,8.0,81,0.00,,,0.00,Rainwise IP-100,2013-01-18 14:18:00,
2013-01-18 09:23:00,17.4,14.0,29.48,SW,225,6.0,8.0,80,0.00,,,0.00,Rainwise IP-100,2013-01-18 14:23:00,
2013-01-18 09:28:00,17.7,14.0,29.48,SW,225,3.0,12.0,78,0.00,,,0.00,Rainwise IP-100,2013-01-18 14:28:00,
2013-01-18 09:33:00,17.9,14.0,29.48,West,270,7.0,13.0,77,0.00,,,0.00,Rainwise IP-100,2013-01-18 14:33:00,
2013-01-18 09:38:00,18.3,14.0,29.48,West,270,4.0,12.0,78,0.00,,,0.00,Rainwise IP-100,2013-01-18 14:38:00,
2013-01-18 09:43:00,18.6,14.0,29.48,WNW,292,11.0,14.0,77,0.00,,,0.00,Rainwise IP-100,2013-01-18 14:43:00,
2013-01-18 09:48:00,18.8,14.0,29.48,WSW,247,11.0,16.0,76,0.00,,,0.00,Rainwise IP-100,2013-01-18 14:48:00,
2013-01-18 09:53:00,19.0,14.0,29.49,WNW,292,5.0,16.0,74,0.00,,,0.00,Rainwise IP-100,2013-01-18 14:53:00,
2013-01-18 09:58:00,19.3,14.0,29.49,WSW,247,7.0,17.0,72,0.00,,,0.00,Rainwise IP-100,2013-01-18 14:58:00,
2013-01-18 10:03:00,19.5,14.0,29.49,WSW,247,7.0,15.0,72,0.00,,,0.00,Rainwise IP-100,2013-01-18 15:03:00,
2013-01-18 10:08:00,19.6,14.0,29.50,West,270,9.0,18.0,71,0.00,,,0.00,Rainwise IP-100,2013-01-18 15:08:00,
2013-01-18 10:13:00,19.7,14.0,29.50,West,270,6.0,16.0,70,0.00,,,0.00,Rainwise IP-100,2013-01-18 15:13:00,
2013-01-18 10:18:00,19.8,14.0,29.51,West,270,12.0,16.0,70,0.00,,,0.00,Rainwise IP-100,2013-01-18 15:18:00,
2013-01-18 10:23:00,19.8,11.0,29.51,West,270,6.0,17.0,68,0.00,,,0.00,Rainwise IP-100,2013-01-18 15:23:00,
2013-01-18 10:28:00,19.9,11.0,29.51,WSW,247,12.0,14.0,67,0.00,,,0.00,Rainwise IP-100,2013-01-18 15:28:00,
2013-01-18 10:33:00,20.2,11.0,29.50,WSW,247,8.0,16.0,67,0.00,,,0.00,Rainwise IP-100,2013-01-18 15:33:00,
2013-01-18 10:38:00,20.1,11.0,29.51,WSW,247,11.0,17.0,65,0.00,,,0.00,Rainwise IP-100,2013-01-18 15:38:00,
2013-01-18 10:43:00,20.1,11.0,29.51,WSW,247,14.0,17.0,66,0.00,,,0.00,Rainwise IP-100,2013-01-18 15:43:00,
2013-01-18 10:48:00,20.2,11.0,29.51,West,270,5.0,15.0,65,0.00,,,0.00,Rainwise IP-100,2013-01-18 15:48:00,
2013-01-18 10:53:00,20.3,11.0,29.50,WSW,247,13.0,14.0,65,0.00,,,0.00,Rainwise IP-100,2013-01-18 15:53:00,
2013-01-18 10:58:00,20.6,11.0,29.50,West,270,9.0,15.0,65,0.00,,,0.00,Rainwise IP-100,2013-01-18 15:58:00,
2013-01-18 11:03:00,20.7,11.0,29.49,West,270,11.0,14.0,62,0.00,,,0.00,Rainwise IP-100,2013-01-18 16:03:00,
2013-01-18 11:08:00,20.8,11.0,29.50,West,270,12.0,14.0,62,0.00,,,0.00,Rainwise IP-100,2013-01-18 16:08:00,
2013-01-18 11:13:00,20.9,8.0,29.49,WSW,247,9.0,18.0,59,0.00,,,0.00,Rainwise IP-100,2013-01-18 16:13:00,
2013-01-18 11:18:00,21.1,8.0,29.50,West,270,7.0,17.0,58,0.00,,,0.00,Rainwise IP-100,2013-01-18 16:18:00,
2013-01-18 11:23:00,21.1,8.0,29.50,WSW,247,17.0,20.0,52,0.00,,,0.00,Rainwise IP-100,2013-01-18 16:23:00,
2013-01-18 11:28:00,21.0,8.0,29.49,West,270,3.0,17.0,51,0.00,,,0.00,Rainwise IP-100,2013-01-18 16:28:00,
2013-01-18 11:33:00,21.4,8.0,29.50,SW,225,8.0,13.0,52,0.00,,,0.00,Rainwise IP-100,2013-01-18 16:33:00,
2013-01-18 11:38:00,21.4,8.0,29.49,WSW,247,4.0,14.0,50,0.00,,,0.00,Rainwise IP-100,2013-01-18 16:38:00,
2013-01-18 11:43:00,21.8,8.0,29.48,SW,225,9.0,16.0,51,0.00,,,0.00,Rainwise IP-100,2013-01-18 16:43:00,
2013-01-18 11:48:00,21.9,8.0,29.48,WSW,247,6.0,16.0,52,0.00,,,0.00,Rainwise IP-100,2013-01-18 16:48:00,
2013-01-18 11:53:00,22.1,8.0,29.48,WSW,247,2.0,11.0,49,0.00,,,0.00,Rainwise IP-100,2013-01-18 16:53:00,
2013-01-18 11:58:00,21.9,8.0,29.48,West,270,11.0,15.0,49,0.00,,,0.00,Rainwise IP-100,2013-01-18 16:58:00,
2013-01-18 12:03:00,21.9,8.0,29.48,West,270,10.0,16.0,48,0.00,,,0.00,Rainwise IP-100,2013-01-18 17:03:00,
2013-01-18 12:08:00,21.9,8.0,29.47,West,270,12.0,13.0,50,0.00,,,0.00,Rainwise IP-100,2013-01-18 17:08:00,
2013-01-18 12:13:00,21.9,8.0,29.48,WSW,247,6.0,14.0,51,0.00,,,0.00,Rainwise IP-100,2013-01-18 17:13:00,
2013-01-18 12:18:00,21.9,8.0,29.48,West,270,9.0,12.0,49,0.00,,,0.00,Rainwise IP-100,2013-01-18 17:18:00,
2013-01-18 12:23:00,21.9,8.0,29.48,West,270,9.0,16.0,53,0.00,,,0.00,Rainwise IP-100,2013-01-18 17:23:00,
2013-01-18 12:28:00,21.9,8.0,29.48,West,270,11.0,15.0,50,0.00,,,0.00,Rainwise IP-100,2013-01-18 17:28:00,
2013-01-18 12:33:00,21.9,8.0,29.48,WSW,247,3.0,17.0,53,0.00,,,0.00,Rainwise IP-100,2013-01-18 17:33:00,
2013-01-18 12:38:00,21.9,8.0,29.48,West,270,10.0,16.0,53,0.00,,,0.00,Rainwise IP-100,2013-01-18 17:38:00,
2013-01-18 12:43:00,21.9,8.0,29.47,West,270,8.0,14.0,52,0.00,,,0.00,Rainwise IP-100,2013-01-18 17:43:00,
2013-01-18 12:48:00,21.9,8.0,29.47,West,270,9.0,14.0,52,0.00,,,0.00,Rainwise IP-100,2013-01-18 17:48:00,
2013-01-18 12:53:00,22.0,8.0,29.47,West,270,8.0,13.0,53,0.00,,,0.00,Rainwise IP-100,2013-01-18 17:53:00,
2013-01-18 12:58:00,21.9,8.0,29.46,West,270,9.0,14.0,51,0.00,,,0.00,Rainwise IP-100,2013-01-18 17:58:00,
2013-01-18 13:03:00,21.9,8.0,29.46,West,270,6.0,12.0,51,0.00,,,0.00,Rainwise IP-100,2013-01-18 18:03:00,
2013-01-18 13:08:00,22.3,8.0,29.46,WSW,247,6.0,11.0,53,0.00,,,0.00,Rainwise IP-100,2013-01-18 18:08:00,
2013-01-18 13:13:00,22.5,8.0,29.46,West,270,2.0,11.0,53,0.00,,,0.00,Rainwise IP-100,2013-01-18 18:13:00,
2013-01-18 13:18:00,22.4,8.0,29.46,West,270,4.0,11.0,52,0.00,,,0.00,Rainwise IP-100,2013-01-18 18:18:00,
2013-01-18 13:23:00,22.7,8.0,29.46,WSW,247,8.0,11.0,54,0.00,,,0.00,Rainwise IP-100,2013-01-18 18:23:00,
2013-01-18 13:28:00,22.9,8.0,29.47,West,270,9.0,12.0,53,0.00,,,0.00,Rainwise IP-100,2013-01-18 18:28:00,
2013-01-18 13:33:00,22.6,8.0,29.47,West,270,8.0,11.0,53,0.00,,,0.00,Rainwise IP-100,2013-01-18 18:33:00,
2013-01-18 13:38:00,22.5,8.0,29.47,WNW,292,9.0,12.0,52,0.00,,,0.00,Rainwise IP-100,2013-01-18 18:38:00,
2013-01-18 13:43:00,22.8,8.0,29.47,West,270,6.0,11.0,53,0.00,,,0.00,Rainwise IP-100,2013-01-18 18:43:00,
2013-01-18 13:48:00,22.9,8.0,29.47,West,270,3.0,11.0,54,0.00,,,0.00,Rainwise IP-100,2013-01-18 18:48:00,
2013-01-18 13:53:00,22.7,8.0,29.46,WSW,247,6.0,9.0,53,0.00,,,0.00,Rainwise IP-100,2013-01-18 18:53:00,
2013-01-18 13:58:00,22.7,8.0,29.46,West,270,6.0,8.0,52,0.00,,,0.00,Rainwise IP-100,2013-01-18 18:58:00,
2013-01-18 14:03:00,22.8,8.0,29.46,SSW,202,4.0,11.0,51,0.00,,,0.00,Rainwise IP-100,2013-01-18 19:03:00,
2013-01-18 14:08:00,22.9,11.0,29.46,SW,225,6.0,9.0,55,0.00,,,0.00,Rainwise IP-100,2013-01-18 19:08:00,
2013-01-18 14:13:00,22.7,11.0,29.46,SW,225,4.0,9.0,55,0.00,,,0.00,Rainwise IP-100,2013-01-18 19:13:00,
2013-01-18 14:18:00,22.5,11.0,29.46,SW,225,6.0,14.0,55,0.00,,,0.00,Rainwise IP-100,2013-01-18 19:18:00,
2013-01-18 14:23:00,22.9,11.0,29.45,WSW,247,4.0,10.0,56,0.00,,,0.00,Rainwise IP-100,2013-01-18 19:23:00,
2013-01-18 14:28:00,22.5,11.0,29.45,WSW,247,8.0,9.0,55,0.00,,,0.00,Rainwise IP-100,2013-01-18 19:28:00,
2013-01-18 14:33:00,22.4,11.0,29.45,WSW,247,6.0,11.0,56,0.00,,,0.00,Rainwise IP-100,2013-01-18 19:33:00,
2013-01-18 14:38:00,22.2,11.0,29.45,WSW,247,6.0,9.0,56,0.00,,,0.00,Rainwise IP-100,2013-01-18 19:38:00,
2013-01-18 14:43:00,22.1,11.0,29.44,WSW,247,4.0,7.0,56,0.00,,,0.00,Rainwise IP-100,2013-01-18 19:43:00,
2013-01-18 14:48:00,22.6,11.0,29.44,SW,225,0.0,6.0,55,0.00,,,0.00,Rainwise IP-100,2013-01-18 19:48:00,
2013-01-18 14:53:00,23.4,11.0,29.44,SSW,202,2.0,5.0,56,0.00,,,0.00,Rainwise IP-100,2013-01-18 19:53:00,
2013-01-18 14:58:00,23.3,11.0,29.44,SW,225,2.0,9.0,57,0.00,,,0.00,Rainwise IP-100,2013-01-18 19:58:00,
2013-01-18 15:03:00,23.3,11.0,29.44,WSW,247,4.0,6.0,56,0.00,,,0.00,Rainwise IP-100,2013-01-18 20:03:00,
2013-01-18 15:08:00,23.4,11.0,29.44,South,180,4.0,9.0,55,0.00,,,0.00,Rainwise IP-100,2013-01-18 20:08:00,
2013-01-18 15:13:00,23.3,11.0,29.44,SW,225,4.0,7.0,57,0.00,,,0.00,Rainwise IP-100,2013-01-18 20:13:00,
2013-01-18 15:18:00,23.5,11.0,29.44,SSW,202,4.0,6.0,56,0.00,,,0.00,Rainwise IP-100,2013-01-18 20:18:00,
2013-01-18 15:23:00,24.1,11.0,29.44,SSE,157,4.0,6.0,55,0.00,,,0.00,Rainwise IP-100,2013-01-18 20:23:00,
2013-01-18 15:28:00,23.9,11.0,29.43,SW,225,4.0,5.0,56,0.00,,,0.00,Rainwise IP-100,2013-01-18 20:28:00,
2013-01-18 15:33:00,24.1,11.0,29.43,SSW,202,1.0,4.0,55,0.00,,,0.00,Rainwise IP-100,2013-01-18 20:33:00,
2013-01-18 15:38:00,24.5,14.0,29.43,South,180,2.0,3.0,54,0.00,,,0.00,Rainwise IP-100,2013-01-18 20:38:00,
2013-01-18 15:43:00,25.1,11.0,29.43,South,180,3.0,4.0,53,0.00,,,0.00,Rainwise IP-100,2013-01-18 20:43:00,
2013-01-18 15:48:00,25.2,14.0,29.43,South,180,5.0,6.0,54,0.00,,,0.00,Rainwise IP-100,2013-01-18 20:48:00,
2013-01-18 15:53:00,24.9,11.0,29.42,SSW,202,4.0,8.0,53,0.00,,,0.00,Rainwise IP-100,2013-01-18 20:53:00,
2013-01-18 15:58:00,24.9,11.0,29.42,South,180,6.0,9.0,53,0.00,,,0.00,Rainwise IP-100,2013-01-18 20:58:00,
2013-01-18 16:03:00,24.6,11.0,29.42,South,180,6.0,11.0,53,0.00,,,0.00,Rainwise IP-100,2013-01-18 21:03:00,
2013-01-18 16:08:00,24.5,14.0,29.41,South,180,6.0,9.0,54,0.00,,,0.00,Rainwise IP-100,2013-01-18 21:08:00,
2013-01-18 16:13:00,24.4,11.0,29.41,South,180,6.0,9.0,52,0.00,,,0.00,Rainwise IP-100,2013-01-18 21:13:00,
2013-01-18 16:18:00,24.1,11.0,29.41,SSW,202,4.0,9.0,55,0.00,,,0.00,Rainwise IP-100,2013-01-18 21:18:00,
2013-01-18 16:23:00,23.7,11.0,29.40,SSW,202,4.0,6.0,55,0.00,,,0.00,Rainwise IP-100,2013-01-18 21:23:00,
2013-01-18 16:28:00,23.5,11.0,29.40,South,180,4.0,11.0,55,0.00,,,0.00,Rainwise IP-100,2013-01-18 21:28:00,
2013-01-18 16:33:00,23.5,11.0,29.40,SSW,202,2.0,9.0,54,0.00,,,0.00,Rainwise IP-100,2013-01-18 21:33:00,
2013-01-18 16:38:00,23.3,11.0,29.40,South,180,4.0,9.0,57,0.00,,,0.00,Rainwise IP-100,2013-01-18 21:38:00,
2013-01-18 16:43:00,23.0,11.0,29.40,South,180,3.0,6.0,57,0.00,,,0.00,Rainwise IP-100,2013-01-18 21:43:00,
2013-01-18 16:48:00,22.7,11.0,29.40,SSE,157,2.0,6.0,58,0.00,,,0.00,Rainwise IP-100,2013-01-18 21:48:00,
2013-01-18 16:53:00,22.5,11.0,29.40,SSE,157,4.0,5.0,60,0.00,,,0.00,Rainwise IP-100,2013-01-18 21:53:00,
2013-01-18 16:58:00,22.5,11.0,29.39,SSE,157,2.0,5.0,61,0.00,,,0.00,Rainwise IP-100,2013-01-18 21:58:00,
2013-01-18 17:03:00,22.7,11.0,29.39,SSE,157,5.0,5.0,61,0.00,,,0.00,Rainwise IP-100,2013-01-18 22:03:00,
2013-01-18 17:08:00,22.9,11.0,29.39,SSE,157,2.0,6.0,60,0.00,,,0.00,Rainwise IP-100,2013-01-18 22:08:00,
2013-01-18 17:13:00,22.9,11.0,29.38,SSE,157,4.0,6.0,62,0.00,,,0.00,Rainwise IP-100,2013-01-18 22:13:00,
2013-01-18 17:18:00,22.9,14.0,29.38,SSE,157,1.0,5.0,63,0.00,,,0.00,Rainwise IP-100,2013-01-18 22:18:00,
2013-01-18 17:23:00,22.9,14.0,29.38,SSE,157,4.0,5.0,63,0.00,,,0.00,Rainwise IP-100,2013-01-18 22:23:00,
2013-01-18 17:28:00,23.0,11.0,29.38,SSE,157,4.0,6.0,61,0.00,,,0.00,Rainwise IP-100,2013-01-18 22:28:00,
2013-01-18 17:33:00,23.1,14.0,29.38,SE,135,4.0,6.0,63,0.00,,,0.00,Rainwise IP-100,2013-01-18 22:33:00,
2013-01-18 17:38:00,23.2,11.0,29.38,SE,135,4.0,6.0,62,0.00,,,0.00,Rainwise IP-100,2013-01-18 22:38:00,
2013-01-18 17:43:00,23.3,11.0,29.37,SSE,157,6.0,8.0,61,0.00,,,0.00,Rainwise IP-100,2013-01-18 22:43:00,
2013-01-18 17:48:00,23.6,14.0,29.37,SSE,157,7.0,10.0,59,0.00,,,0.00,Rainwise IP-100,2013-01-18 22:48:00,
2013-01-18 17:53:00,23.9,14.0,29.37,South,180,5.0,11.0,60,0.00,,,0.00,Rainwise IP-100,2013-01-18 22:53:00,
2013-01-18 17:58:00,23.9,14.0,29.37,SSE,157,7.0,10.0,60,0.00,,,0.00,Rainwise IP-100,2013-01-18 22:58:00,
2013-01-18 18:03:00,23.9,11.0,29.38,SSE,157,4.0,10.0,57,0.00,,,0.00,Rainwise IP-100,2013-01-18 23:03:00,
2013-01-18 18:08:00,23.9,14.0,29.37,SSE,157,7.0,9.0,60,0.00,,,0.00,Rainwise IP-100,2013-01-18 23:08:00,
2013-01-18 18:13:00,23.7,14.0,29.37,SSE,157,6.0,7.0,60,0.00,,,0.00,Rainwise IP-100,2013-01-18 23:13:00,
2013-01-18 18:18:00,23.6,14.0,29.37,SSE,157,5.0,9.0,59,0.00,,,0.00,Rainwise IP-100,2013-01-18 23:18:00,
2013-01-18 18:23:00,23.6,14.0,29.36,SE,135,4.0,7.0,58,0.00,,,0.00,Rainwise IP-100,2013-01-18 23:23:00,
2013-01-18 18:28:00,23.6,14.0,29.36,SE,135,4.0,9.0,58,0.00,,,0.00,Rainwise IP-100,2013-01-18 23:28:00,
2013-01-18 18:33:00,23.7,14.0,29.36,SSE,157,4.0,7.0,59,0.00,,,0.00,Rainwise IP-100,2013-01-18 23:33:00,
2013-01-18 18:38:00,23.6,14.0,29.36,SE,135,4.0,6.0,63,0.00,,,0.00,Rainwise IP-100,2013-01-18 23:38:00,
2013-01-18 18:43:00,23.5,14.0,29.36,SSE,157,4.0,7.0,62,0.00,,,0.00,Rainwise IP-100,2013-01-18 23:43:00,
2013-01-18 18:48:00,23.4,14.0,29.36,SSE,157,4.0,7.0,63,0.00,,,0.00,Rainwise IP-100,2013-01-18 23:48:00,
2013-01-18 18:53:00,23.6,14.0,29.36,SSE,157,4.0,9.0,61,0.00,,,0.00,Rainwise IP-100,2013-01-18 23:53:00,
2013-01-18 18:58:00,23.6,14.0,29.35,SSE,157,8.0,9.0,63,0.00,,,0.00,Rainwise IP-100,2013-01-18 23:58:00,
2013-01-18 19:03:00,23.6,14.0,29.35,SSE,157,8.0,11.0,63,0.00,,,0.00,Rainwise IP-100,2013-01-19 00:03:00,
2013-01-18 19:08:00,23.6,14.0,29.34,SSE,157,6.0,11.0,63,0.00,,,0.00,Rainwise IP-100,2013-01-19 00:08:00,
2013-01-18 19:13:00,23.5,14.0,29.34,SSE,157,4.0,9.0,63,0.00,,,0.00,Rainwise IP-100,2013-01-19 00:13:00,
2013-01-18 19:19:00,23.5,14.0,29.34,SE,135,6.0,12.0,62,0.00,,,0.00,Rainwise IP-100,2013-01-19 00:19:00,
2013-01-18 19:24:00,23.7,14.0,29.34,SSE,157,6.0,8.0,61,0.00,,,0.00,Rainwise IP-100,2013-01-19 00:24:00,
2013-01-18 19:29:00,23.9,14.0,29.34,SE,135,4.0,8.0,60,0.00,,,0.00,Rainwise IP-100,2013-01-19 00:29:00,
2013-01-18 19:34:00,24.2,14.0,29.34,SE,135,5.0,9.0,59,0.00,,,0.00,Rainwise IP-100,2013-01-19 00:34:00,
2013-01-18 19:39:00,24.5,14.0,29.34,SE,135,9.0,11.0,59,0.00,,,0.00,Rainwise IP-100,2013-01-19 00:39:00,
2013-01-18 19:44:00,24.9,14.0,29.34,SE,135,4.0,11.0,56,0.00,,,0.00,Rainwise IP-100,2013-01-19 00:44:00,
2013-01-18 19:49:00,25.0,14.0,29.34,SSE,157,7.0,9.0,56,0.00,,,0.00,Rainwise IP-100,2013-01-19 00:49:00,
2013-01-18 19:54:00,25.1,14.0,29.34,SSE,157,11.0,14.0,57,0.00,,,0.00,Rainwise IP-100,2013-01-19 00:54:00,
2013-01-18 19:59:00,25.3,14.0,29.33,SSE,157,9.0,16.0,58,0.00,,,0.00,Rainwise IP-100,2013-01-19 00:59:00,
2013-01-18 20:04:00,25.5,14.0,29.33,SSE,157,17.0,17.0,55,0.00,,,0.00,Rainwise IP-100,2013-01-19 01:04:00,
2013-01-18 20:09:00,25.6,14.0,29.33,SE,135,6.0,17.0,55,0.00,,,0.00,Rainwise IP-100,2013-01-19 01:09:00,
2013-01-18 20:14:00,25.7,14.0,29.33,SSE,157,7.0,14.0,55,0.00,,,0.00,Rainwise IP-100,2013-01-19 01:14:00,
2013-01-18 20:19:00,25.8,14.0,29.32,SSE,157,12.0,12.0,55,0.00,,,0.00,Rainwise IP-100,2013-01-19 01:19:00,
2013-01-18 20:24:00,25.9,14.0,29.32,SE,135,7.0,15.0,56,0.00,,,0.00,Rainwise IP-100,2013-01-19 01:24:00,
2013-01-18 20:29:00,25.8,14.0,29.32,SE,135,7.0,12.0,57,0.00,,,0.00,Rainwise IP-100,2013-01-19 01:29:00,
2013-01-18 20:34:00,25.8,14.0,29.31,SSE,157,7.0,13.0,55,0.00,,,0.00,Rainwise IP-100,2013-01-19 01:34:00,
2013-01-18 20:39:00,25.6,14.0,29.31,SSE,157,9.0,15.0,56,0.00,,,0.00,Rainwise IP-100,2013-01-19 01:39:00,
2013-01-18 20:44:00,25.6,14.0,29.30,SSE,157,10.0,15.0,57,0.00,,,0.00,Rainwise IP-100,2013-01-19 01:44:00,
2013-01-18 20:49:00,25.6,14.0,29.30,SE,135,8.0,15.0,56,0.00,,,0.00,Rainwise IP-100,2013-01-19 01:49:00,
2013-01-18 20:54:00,25.5,14.0,29.29,SSE,157,5.0,12.0,58,0.00,,,0.00,Rainwise IP-100,2013-01-19 01:54:00,
2013-01-18 20:59:00,25.6,14.0,29.29,SSE,157,11.0,13.0,57,0.00,,,0.00,Rainwise IP-100,2013-01-19 01:59:00,
2013-01-18 21:04:00,25.6,14.0,29.28,SSE,157,7.0,12.0,59,0.00,,,0.00,Rainwise IP-100,2013-01-19 02:04:00,
2013-01-18 21:09:00,25.5,14.0,29.28,SSE,157,9.0,13.0,58,0.00,,,0.00,Rainwise IP-100,2013-01-19 02:09:00,
2013-01-18 21:14:00,25.7,14.0,29.28,SSE,157,11.0,16.0,58,0.00,,,0.00,Rainwise IP-100,2013-01-19 02:14:00,
2013-01-18 21:19:00,25.8,14.0,29.28,SSE,157,9.0,16.0,58,0.00,,,0.00,Rainwise IP-100,2013-01-19 02:19:00,
2013-01-18 21:24:00,25.8,14.0,29.27,South,180,7.0,16.0,58,0.00,,,0.00,Rainwise IP-100,2013-01-19 02:24:00,
2013-01-18 21:29:00,25.9,14.0,29.27,SSE,157,12.0,15.0,60,0.00,,,0.00,Rainwise IP-100,2013-01-19 02:29:00,
2013-01-18 21:34:00,26.1,14.0,29.27,SSE,157,8.0,17.0,58,0.00,,,0.00,Rainwise IP-100,2013-01-19 02:34:00,
2013-01-18 21:39:00,26.3,14.0,29.26,South,180,11.0,15.0,59,0.00,,,0.00,Rainwise IP-100,2013-01-19 02:39:00,
2013-01-18 21:44:00,26.4,14.0,29.25,SSE,157,8.0,16.0,59,0.00,,,0.00,Rainwise IP-100,2013-01-19 02:44:00,
2013-01-18 21:49:00,26.5,16.0,29.24,SSE,157,11.0,17.0,58,0.00,,,0.00,Rainwise IP-100,2013-01-19 02:49:00,
2013-01-18 21:54:00,26.6,16.0,29.23,SSE,157,11.0,18.0,58,0.00,,,0.00,Rainwise IP-100,2013-01-19 02:54:00,
2013-01-18 21:59:00,26.8,16.0,29.23,SSE,157,9.0,16.0,59,0.00,,,0.00,Rainwise IP-100,2013-01-19 02:59:00,
2013-01-18 22:04:00,26.9,16.0,29.23,SSE,157,13.0,16.0,59,0.00,,,0.00,Rainwise IP-100,2013-01-19 03:04:00,
2013-01-18 22:09:00,27.0,16.0,29.23,SSE,157,7.0,17.0,59,0.00,,,0.00,Rainwise IP-100,2013-01-19 03:09:00,
2013-01-18 22:14:00,27.1,16.0,29.22,SSE,157,11.0,17.0,59,0.00,,,0.00,Rainwise IP-100,2013-01-19 03:14:00,
2013-01-18 22:19:00,27.1,16.0,29.21,SSE,157,7.0,17.0,59,0.00,,,0.00,Rainwise IP-100,2013-01-19 03:19:00,
2013-01-18 22:24:00,27.2,16.0,29.21,South,180,10.0,20.0,58,0.00,,,0.00,Rainwise IP-100,2013-01-19 03:24:00,
2013-01-18 22:29:00,27.2,16.0,29.21,SSE,157,12.0,17.0,58,0.00,,,0.00,Rainwise IP-100,2013-01-19 03:29:00,
2013-01-18 22:34:00,27.3,16.0,29.21,SSE,157,12.0,16.0,58,0.00,,,0.00,Rainwise IP-100,2013-01-19 03:34:00,
2013-01-18 22:39:00,27.4,16.0,29.20,SSE,157,6.0,16.0,59,0.00,,,0.00,Rainwise IP-100,2013-01-19 03:39:00,
2013-01-18 22:44:00,27.4,16.0,29.20,SSE,157,8.0,12.0,59,0.00,,,0.00,Rainwise IP-100,2013-01-19 03:44:00,
2013-01-18 22:49:00,27.6,16.0,29.20,SSE,157,9.0,15.0,59,0.00,,,0.00,Rainwise IP-100,2013-01-19 03:49:00,
2013-01-18 22:54:00,27.9,16.0,29.19,SE,135,8.0,17.0,59,0.00,,,0.00,Rainwise IP-100,2013-01-19 03:54:00,
2013-01-18 22:59:00,28.0,16.0,29.19,SSE,157,9.0,14.0,60,0.00,,,0.00,Rainwise IP-100,2013-01-19 03:59:00,
2013-01-18 23:04:00,28.4,16.0,29.19,SSE,157,15.0,18.0,58,0.00,,,0.00,Rainwise IP-100,2013-01-19 04:04:00,
2013-01-18 23:09:00,28.7,16.0,29.19,South,180,12.0,18.0,57,0.00,,,0.00,Rainwise IP-100,2013-01-19 04:09:00,
2013-01-18 23:14:00,28.9,16.0,29.18,SSE,157,12.0,18.0,56,0.00,,,0.00,Rainwise IP-100,2013-01-19 04:14:00,
2013-01-18 23:19:00,29.1,16.0,29.18,SSE,157,10.0,18.0,57,0.00,,,0.00,Rainwise IP-100,2013-01-19 04:19:00,
2013-01-18 23:24:00,29.3,16.0,29.17,SSE,157,10.0,21.0,56,0.00,,,0.00,Rainwise IP-100,2013-01-19 04:24:00,
2013-01-18 23:29:00,29.5,18.0,29.17,SSE,157,11.0,17.0,57,0.00,,,0.00,Rainwise IP-100,2013-01-19 04:29:00,
2013-01-18 23:34:00,29.8,16.0,29.17,SSE,157,14.0,19.0,54,0.00,,,0.00,Rainwise IP-100,2013-01-19 04:34:00,
2013-01-18 23:39:00,30.1,16.0,29.18,SSE,157,10.0,22.0,54,0.00,,,0.00,Rainwise IP-100,2013-01-19 04:39:00,
2013-01-18 23:44:00,30.0,16.0,29.17,SSE,157,19.0,21.0,55,0.00,,,0.00,Rainwise IP-100,2013-01-19 04:44:00,
2013-01-18 23:49:00,30.3,16.0,29.17,SSE,157,23.0,27.0,55,0.00,,,0.00,Rainwise IP-100,2013-01-19 04:49:00,
2013-01-18 23:54:00,30.4,16.0,29.17,South,180,9.0,24.0,55,0.00,,,0.00,Rainwise IP-100,2013-01-19 04:54:00,
2013-01-18 23:59:00,30.6,16.0,29.16,South,180,14.0,26.0,53,0.00,,,0.00,Rainwise IP-100,2013-01-19 04:59:00,